Location: Arthurs Seat
(13.1500°N, 59.6000°W)
Time: 12:32:46
(UTC+00:00)

Okean 1 - Pass Details

Date: 25 August 2019
Orbit: 538 x 557 km, 82.5° (Epoch: 17 September)

Event Time Altitude Azimuth Distance (km) Brightness Sun altitude
Rises 23:35:51 0° 358° (N) 2,684 7.1 -20.2°
Reaches altitude 10° 23:38:00 10° 1° (N) 1,794 6.1 -20.7°
Enters shadow 23:41:54 73° 81° (E) 567 3.1 -21.6°
